COSMOS 2251 DEB

Satellite information

Favourite Embed

Satellite Type and Status

DEBRISIN ORBIT

Key statistics

Satellite COSMOS 2251 DEB at a glance.

Uptime

11650

Days in orbit

Revolutions

≈ 14.9

Per day

Orbit

LEO

Low Earth Orbit

Inclination

74.0

Latest

Satellite identification and parameters

Extended collection of information and parameters for COSMOS 2251 DEB.

Object identification

Identified? True

Debris? True

Object name: COSMOS 2251 DEB

International designator: 1993-036BRU

Object number (NORAD): 38062

Object ID (CCSDS): 38062

Country: COMMONWEALTH OF INDEPENDENT STATES (CIS)

Current information (Y/N): Y

RCS size: SMALL

Orbital parameters

Period: 96.928 minutes

Inclination: 74.0137 deg

SMA: 6989.725 km

Apoapsis: 627.881 km

Periapsis: 595.298 km

RAAN: 16.3686 deg

Eccentricy: 0.0023308

Argument of periapsis: 200.8846 deg

Mean anomaly: 175.4961 deg

Mean motion: 14.85636825 rev/day

Mean motion (dot): 0.00018096 rev/day2

B* drag term: 0.0020771 1/REarth

Two-line elements (TLE)

Creation date: May 4, 2025, 6:26 a.m.

Reference frame: TEME

Reference center: EARTH

Epoch: May 3, 2025, 11:28 p.m. UTC

TLE line 0: 0 COSMOS 2251 DEB

TLE line 1: 1 38062U 93036BRU 25123.97800822 .00018096 00000-0 20771-2 0 9992

TLE line 2: 2 38062 74.0137 16.3686 0023308 200.8846 175.4961 14.85636825775029

Live tracking on map

Real-time ground track for satellite COSMOS 2251 DEB.

In-orbit conjunctions

A list of the most updated potential collisions computed for object COSMOS 2251 DEB.

Target Orbit TCA Probability of collision Miss distance Type
TIROS 8 LEO 2024-11-03 13:16:14 0.0001737071 657.0 (m) PAYLOAD

Associated space launch

Military communications satellite. Destroyed in a collision with Iridium 33.

COSMOS 2251 DEB was lifted into orbit during the mission ‘Kosmos-3M | Strela-2M 51’, on board a Kosmos-3M space rocket.

The launch took place on June 16, 1993, 4:17 a.m. from 132/1 (132L).

For more information about the launch, click the button.

Launch to space Kosmos-3M | Strela-2M 51
Kosmos-3M | Strela-2M 51

Agency: N/A

Status: Launch Successful

Launch date: June 16, 1993, 4:17 a.m. UTC

Rocket: Kosmos-3M

Launch pad: 132/1 (132L)

Location: Plesetsk Cosmodrome, Russian Federation

...

Latest news about this satellite

There are no fresh news available about this satellite. Check back as we update our databases every day.


Newsletter sign-up

Weekly statistics, charts and insights to help you stay on top of the space industry.